Home   Weather   Dickinson   Past weeks

Flag for USA Past Weather in Dickinson, North Dakota, USA — Yesterday and Last 2 Weeks

Now
74 °F

Sunny.


Feels Like: 77 °F
Forecast: 53 / 86 °F
Wind: 14 mph from South

Location: Dickinson Municipal Airport

Current Time: Aug 30, 2016 at 11:20:20 AM

Latest Report: Aug 30, 2016 at 10:56 AM


Visibility: 10 mi

Pressure: 30.21 "Hg (27.75 "Hg at 735m altitude)

Humidity: 46%

Dew Point: 52 °F

Location of DickinsonLocation

Past Weather in Dickinson — Graph

°F

Dickinson Temperature Yesterday

Maximum temperature yesterday: 79 °F (at 1:56 PM)
Minimum temperature yesterday: 54 °F (at 11:56 PM)
Average temperature yesterday: 67 °F

High & Low Weather Summary for the Past Weeks

 TemperatureHumidityPressure
High95 °F (Aug 22, 1:56 PM)97% (Aug 20, 3:56 AM)30.26 "Hg (Aug 20, 3:56 AM)
Low43 °F (Aug 20, 3:56 AM)9% (Aug 28, 2:56 PM)29.52 "Hg (Aug 22, 5:56 PM)
Average65 °F55%29.96 "Hg
* Reported Aug 15 9:56 AM — Aug 30 9:56 AM, Dickinson, Weather by CustomWeather, © 2016

Note: Actual official high and low records may vary slightly from our data, if they occured in-between our weather recording intervals... More about our weather records

Advertising

Dickinson Weather History for the Previous 24 Hours

Scroll right to see more
 ConditionsComfort  
Time TempWeatherWind HumidityBarometerVisibility
9:56 AM
Tue, Aug 30
72 °FSunny.17 mph40%30.20 "Hg10 mi
8:56 AM68 °FSunny.21 mph45%30.20 "Hg10 mi
7:56 AM61 °FSunny.18 mph65%30.22 "Hg10 mi
6:56 AM55 °FSunny.14 mph80%30.21 "Hg10 mi
5:56 AM52 °FClear.10 mph83%30.20 "Hg10 mi
4:56 AM52 °FClear.13 mph83%30.20 "Hg10 mi
3:56 AM52 °FClear.9 mph80%30.20 "Hg10 mi
2:56 AM53 °FClear.10 mph77%30.22 "Hg10 mi
1:56 AM51 °FClear.8 mph77%30.22 "Hg10 mi
12:56 AM54 °FClear.10 mph72%30.21 "Hg10 mi
11:56 PM
Mon, Aug 29
54 °FClear.7 mph69%30.23 "Hg10 mi
10:56 PM57 °FClear.7 mph62%30.23 "Hg10 mi
9:56 PM59 °FClear.8 mph60%30.23 "Hg10 mi
8:56 PM62 °FClear.9 mph54%30.22 "Hg10 mi
7:56 PM62 °FClear.8 mph52%30.22 "Hg10 mi
6:56 PM73 °FSunny.9 mph34%30.19 "Hg10 mi
5:56 PM78 °FSunny.10 mph28%30.19 "Hg10 mi
4:56 PM79 °FSunny.No wind25%30.19 "Hg10 mi
3:56 PM79 °FSunny.5 mph26%30.19 "Hg10 mi
2:56 PM79 °FSunny.9 mph27%30.21 "Hg10 mi
1:56 PM79 °FSunny.12 mph28%30.22 "Hg10 mi
12:56 PM77 °FSunny.9 mph31%30.24 "Hg10 mi
11:56 AM74 °FSunny.10 mph36%30.25 "Hg10 mi
Weather by CustomWeather, © 2016

See weather overviewHow to use our weather pages